TimeCST,TemperatureF,Dew PointF,Humidity,Sea Level PressureIn,VisibilityMPH,Wind Direction,Wind SpeedMPH,Gust SpeedMPH,PrecipitationIn,Events,Conditions,WindDirDegrees,DateUTC
12:15 AM,15.8,12.2,86,29.89,7.0,West,4.6,-,N/A,,Overcast,270,2012-12-31 06:15:00
12:35 AM,15.8,14.0,93,29.88,6.0,West,4.6,-,N/A,,Overcast,280,2012-12-31 06:35:00
12:55 AM,15.8,15.8,100,29.88,6.0,West,4.6,-,N/A,,Overcast,280,2012-12-31 06:55:00
1:15 AM,17.6,15.8,93,29.88,6.0,WSW,4.6,-,N/A,,Overcast,250,2012-12-31 07:15:00
1:35 AM,17.6,15.8,93,29.87,7.0,West,6.9,-,N/A,,Overcast,260,2012-12-31 07:35:00
1:55 AM,17.6,14.0,86,29.87,7.0,West,5.8,-,N/A,,Overcast,260,2012-12-31 07:55:00
2:15 AM,17.6,12.2,79,29.87,6.0,West,5.8,-,N/A,,Overcast,260,2012-12-31 08:15:00
2:35 AM,17.6,12.2,79,29.86,6.0,West,5.8,-,N/A,,Overcast,280,2012-12-31 08:35:00
2:55 AM,19.4,15.8,86,29.86,6.0,West,6.9,-,N/A,,Overcast,280,2012-12-31 08:55:00
3:15 AM,19.4,15.8,86,29.86,7.0,West,6.9,-,N/A,,Overcast,270,2012-12-31 09:15:00
3:35 AM,19.4,17.6,93,29.86,7.0,West,8.1,-,N/A,,Overcast,270,2012-12-31 09:35:00
3:55 AM,19.4,17.6,93,29.86,7.0,West,6.9,-,N/A,,Overcast,270,2012-12-31 09:55:00
4:15 AM,19.4,17.6,93,29.86,7.0,West,5.8,-,N/A,,Overcast,270,2012-12-31 10:15:00
4:35 AM,19.4,17.6,93,29.87,7.0,West,4.6,-,N/A,,Mostly Cloudy,260,2012-12-31 10:35:00
4:55 AM,19.4,17.6,93,29.87,7.0,West,4.6,-,N/A,,Partly Cloudy,260,2012-12-31 10:55:00
5:15 AM,19.4,17.6,93,29.87,7.0,WSW,4.6,-,N/A,,Partly Cloudy,250,2012-12-31 11:15:00
5:35 AM,19.4,15.8,86,29.88,6.0,West,5.8,-,N/A,,Mostly Cloudy,270,2012-12-31 11:35:00
5:55 AM,19.4,12.2,74,29.89,6.0,West,5.8,-,N/A,,Scattered Clouds,270,2012-12-31 11:55:00
6:15 AM,17.6,14.0,86,29.90,6.0,West,4.6,-,N/A,,Clear,280,2012-12-31 12:15:00
6:35 AM,17.6,14.0,86,29.91,5.0,West,3.5,-,N/A,,Clear,270,2012-12-31 12:35:00
6:55 AM,17.6,15.8,93,29.93,5.0,West,4.6,-,N/A,,Mostly Cloudy,280,2012-12-31 12:55:00
7:15 AM,17.6,17.6,100,29.92,5.0,WNW,3.5,-,N/A,,Overcast,290,2012-12-31 13:15:00
7:35 AM,19.4,17.6,93,29.92,5.0,WNW,3.5,-,N/A,,Overcast,300,2012-12-31 13:35:00
7:55 AM,19.4,15.8,86,29.93,5.0,West,3.5,-,N/A,,Overcast,280,2012-12-31 13:55:00
8:15 AM,19.4,15.8,86,29.94,5.0,Calm,Calm,-,N/A,,Overcast,0,2012-12-31 14:15:00
8:35 AM,21.2,17.6,86,29.95,5.0,WNW,4.6,-,N/A,,Overcast,290,2012-12-31 14:35:00
8:55 AM,21.2,17.6,86,29.96,7.0,WNW,5.8,-,N/A,,Overcast,300,2012-12-31 14:55:00
9:15 AM,21.2,15.8,80,29.96,8.0,NW,6.9,-,N/A,,Overcast,310,2012-12-31 15:15:00
9:35 AM,23.0,14.0,68,29.97,10.0,NW,5.8,16.1,N/A,,Overcast,310,2012-12-31 15:35:00
9:55 AM,23.0,15.8,74,29.97,10.0,WNW,4.6,-,N/A,,Overcast,300,2012-12-31 15:55:00
10:15 AM,23.0,15.8,74,29.97,10.0,WNW,5.8,-,N/A,,Overcast,290,2012-12-31 16:15:00
10:35 AM,23.0,15.8,74,29.98,10.0,NW,4.6,-,N/A,,Overcast,310,2012-12-31 16:35:00
10:55 AM,24.8,15.8,69,29.98,10.0,NW,5.8,-,N/A,,Overcast,310,2012-12-31 16:55:00
11:15 AM,24.8,12.2,59,29.98,10.0,NW,8.1,17.3,N/A,,Overcast,310,2012-12-31 17:15:00
11:35 AM,24.8,10.4,54,29.98,10.0,NW,9.2,16.1,N/A,,Overcast,310,2012-12-31 17:35:00
11:55 AM,23.0,10.4,59,29.98,10.0,NNW,6.9,-,N/A,,Overcast,330,2012-12-31 17:55:00
12:15 PM,23.0,10.4,59,29.97,10.0,NNW,11.5,17.3,N/A,,Overcast,340,2012-12-31 18:15:00
12:35 PM,23.0,10.4,59,29.97,10.0,NNW,9.2,-,N/A,,Overcast,330,2012-12-31 18:35:00
12:55 PM,21.2,10.4,63,29.97,10.0,North,10.4,-,N/A,,Overcast,350,2012-12-31 18:55:00
1:15 PM,21.2,8.6,58,29.97,10.0,NNW,12.7,16.1,N/A,,Mostly Cloudy,340,2012-12-31 19:15:00
1:35 PM,21.2,8.6,58,29.98,10.0,NW,10.4,-,N/A,,Partly Cloudy,320,2012-12-31 19:35:00
1:55 PM,21.2,8.6,58,29.98,10.0,NW,8.1,17.3,N/A,,Clear,310,2012-12-31 19:55:00
2:15 PM,21.2,8.6,58,29.98,10.0,NNW,9.2,-,N/A,,Scattered Clouds,340,2012-12-31 20:15:00
2:35 PM,21.2,8.6,58,29.99,10.0,NNW,10.4,-,N/A,,Scattered Clouds,340,2012-12-31 20:35:00
2:55 PM,21.2,8.6,58,30.00,10.0,NNW,15.0,19.6,N/A,,Partly Cloudy,330,2012-12-31 20:55:00
3:15 PM,21.2,8.6,58,30.01,10.0,NNW,6.9,-,N/A,,Clear,330,2012-12-31 21:15:00
3:35 PM,21.2,8.6,58,30.01,10.0,NNW,10.4,16.1,N/A,,Clear,340,2012-12-31 21:35:00
3:55 PM,19.4,6.8,58,30.03,10.0,North,10.4,-,N/A,,Clear,350,2012-12-31 21:55:00
4:35 PM,19.4,6.8,58,30.05,10.0,NNW,8.1,-,N/A,,Clear,340,2012-12-31 22:35:00
4:55 PM,17.6,6.8,63,30.05,10.0,NNW,5.8,-,N/A,,Clear,340,2012-12-31 22:55:00
5:15 PM,17.6,6.8,63,30.06,10.0,North,6.9,-,N/A,,Clear,360,2012-12-31 23:15:00
5:35 PM,15.8,5.0,62,30.07,10.0,North,8.1,-,N/A,,Clear,350,2012-12-31 23:35:00
5:55 PM,15.8,5.0,62,30.08,10.0,NNW,10.4,-,N/A,,Clear,340,2012-12-31 23:55:00
6:15 PM,15.8,3.2,58,30.09,10.0,NNW,8.1,-,N/A,,Clear,340,2013-01-01 00:15:00
6:35 PM,14.0,3.2,62,30.10,10.0,NNW,9.2,-,N/A,,Clear,340,2013-01-01 00:35:00
6:55 PM,14.0,3.2,62,30.10,10.0,NNW,8.1,-,N/A,,Clear,340,2013-01-01 00:55:00
7:15 PM,12.2,1.4,62,30.11,10.0,NNW,5.8,-,N/A,,Clear,340,2013-01-01 01:15:00
7:35 PM,12.2,1.4,62,30.11,10.0,NNW,5.8,-,N/A,,Clear,340,2013-01-01 01:35:00
7:55 PM,12.2,1.4,62,30.11,10.0,Calm,Calm,-,N/A,,Clear,0,2013-01-01 01:55:00
8:15 PM,10.4,1.4,67,30.11,10.0,Calm,Calm,-,N/A,,Clear,0,2013-01-01 02:15:00
8:35 PM,10.4,1.4,67,30.12,10.0,Calm,Calm,-,N/A,,Clear,0,2013-01-01 02:35:00
8:55 PM,8.6,-0.4,67,30.12,10.0,Calm,Calm,-,N/A,,Clear,0,2013-01-01 02:55:00
9:15 PM,6.8,3.2,85,30.12,10.0,Calm,Calm,-,N/A,,Clear,0,2013-01-01 03:15:00
9:35 PM,6.8,5.0,92,30.12,10.0,Calm,Calm,-,N/A,,Clear,0,2013-01-01 03:35:00
9:55 PM,5.0,1.4,85,30.12,10.0,Calm,Calm,-,N/A,,Clear,0,2013-01-01 03:55:00
10:15 PM,5.0,3.2,92,30.13,10.0,Calm,Calm,-,N/A,,Clear,0,2013-01-01 04:15:00
10:35 PM,3.2,-2.2,78,30.13,10.0,Calm,Calm,-,N/A,,Clear,0,2013-01-01 04:35:00
11:15 PM,5.0,1.4,85,30.13,10.0,West,4.6,-,N/A,,Clear,270,2013-01-01 05:15:00
11:35 PM,3.2,1.4,92,30.13,10.0,West,3.5,-,N/A,,Mostly Cloudy,280,2013-01-01 05:35:00
11:55 PM,5.0,-0.4,78,30.13,10.0,WNW,3.5,-,N/A,,Scattered Clouds,300,2013-01-01 05:55:00